Home > Weather > Parnaíba > Past weeks

Flag for Brazil Weather for the Past 2 Weeks in Parnaíba, Piauí, Brazil

Now
77 °F

Broken clouds.


Feels Like: 78 °F
Forecast: 78 / 87 °F
Wind: 7 mph from East

Location: Teresina Aeroporto

Current Time: May 3, 2016 at 7:42:31 AM

Latest Report: May 3, 2016 at 7:00 AM


Visibility: N/A

Pressure: 29.95 "Hg

Humidity: 89%

Dew Point: 73 °F

Location of ParnaíbaLocation

Historic Weather in Parnaíba — Graph

°F

Parnaíba Temperature Yesterday

Maximum temperature yesterday: 93 °F (at 4:00 PM)
Minimum temperature yesterday: 77 °F (at 6:00 AM)
Average temperature yesterday: 84 °F

High & Low Weather Summary for the Past Weeks

 TemperatureHumidityPressure
High95 °F (Apr 18, 3:00 PM)94% (Apr 20, 1:00 AM)29.95 "Hg (Apr 20, 1:00 AM)
Low77 °F (Apr 20, 4:00 AM)47% (Apr 19, 3:00 PM)29.71 "Hg (Apr 25, 5:00 PM)
Average85 °F72%29.83 "Hg
* Reported Apr 18 6:00 AM — May 3 6:00 AM, Parnaíba, Weather by CustomWeather, © 2016

Note: Actual official high and low records may vary slightly from our data, if they occured in-between our weather recording intervals... More about our weather records

Advertising

Parnaíba Weather History for the Previous 24 Hours

Scroll right to see more
 ConditionsComfort  
Time TempWeatherWind HumidityBarometerVisibility
6:00 AM
Tue, May 3
77 °FPartly sunny.5 mph83%29.92 "HgN/A
5:00 AM77 °FPassing clouds.No wind83%29.89 "HgN/A
4:00 AM77 °FPassing clouds.3 mph83%29.89 "HgN/A
3:00 AM77 °FPassing clouds.5 mph89%29.89 "HgN/A
2:00 AM77 °FPassing clouds.5 mph89%29.89 "HgN/A
1:00 AM77 °FPassing clouds.5 mph89%29.92 "HgN/A
12:00 AM77 °FPassing clouds.6 mph89%29.92 "HgN/A
11:00 PM
Mon, May 2
79 °FClear.9 mph79%29.92 "Hg10 mi
10:00 PM77 °FPassing clouds.7 mph83%29.92 "HgN/A
9:00 PM81 °FThunderstorms. Passing clouds.10 mph79%29.95 "HgN/A
8:00 PM84 °FClear.6 mph70%29.86 "Hg10 mi
7:00 PM86 °FClear.6 mph66%29.83 "Hg10 mi
6:00 PM90 °FPassing clouds.6 mph55%29.80 "HgN/A
5:00 PM91 °FPassing clouds.5 mph56%29.80 "HgN/A
4:00 PM93 °FPassing clouds.6 mph49%29.77 "HgN/A
3:00 PM91 °FScattered clouds.5 mph52%29.80 "HgN/A
2:00 PM91 °FScattered clouds.5 mph52%29.83 "HgN/A
1:00 PM91 °FPartly sunny.7 mph56%29.86 "HgN/A
12:00 PM90 °FPartly sunny.6 mph55%29.89 "HgN/A
11:00 AM90 °FPartly sunny.7 mph59%29.92 "HgN/A
10:00 AM86 °FPartly sunny.8 mph66%29.92 "HgN/A
9:00 AM84 °FScattered clouds.5 mph74%29.92 "HgN/A
8:00 AM82 °FPartly sunny.6 mph79%29.92 "HgN/A
7:00 AM81 °FPassing clouds.1 mph84%29.92 "HgN/A
Weather by CustomWeather, © 2016

See weather overviewHow to use our weather pages